Find Australis-OSCAR 5

NORAD ID: 4321 Int'l Des: 1970-008 Owner: MELB Country: AU operational
LEOCIRCULARRETROGRADESSO

实时位置

正在加载3D地球...

关于 Australis-OSCAR 5

正在加载描述...

即将过境

Passes for default location (London). Set your location on the main map for personalized predictions.

高度历史

Loading altitude history...

两行轨道根数

1 04321U 70008B 26107.03016839 -.00000038 00000-0 29744-4 0 9993
2 04321 101.3249 118.6079 0027744 23.5395 4.0720 12.52190177569799
Epoch: Apr 17, 2026 • Age: 17 hours

当前状态

高度 1445.8 km
速度 7.15 km/s
星下点 53.95°N, 14.41°W
类型 other

Most Searched